TUI3WL EDDF-LEPA

Flight info

Callsign TUI3WL
Flight time 1h 46m
Altitude 29000
Route ANEKI2L/18 ANEKI Y163 HERBI/N0460F390 Y164 MOPAN DCT LUTIX DCT BENOT DCT NEMOS DCT GEVEA DCT INCUS DCT BALSI DCT RETNO DCT TUPOX DCT MTG DCT DIVKO DCT VATIR DCT PIVUS N852 VERSO L129 LUNIK
Aircraft B38M/M-SDE1FGHILORVWXY/HB1

Departure

Time 2026-05-05 18:29
Airport Frankfurt Main Airport (EDDF)

Arrival

Time 2026-05-05 20:16
Airport Palma de Mallorca Airport (LEPA)
Time Latitude Longitude Altitude Speed Heading
2026-05-05 17:34 50.04807 8.58419 368 ft 0 kts 160°
2026-05-05 18:08 50.04807 8.58418 365 ft 1 kts 160°
2026-05-05 18:08 50.04827 8.58407 364 ft 3 kts 160°
2026-05-05 18:08 50.04845 8.58396 367 ft 3 kts 166°
2026-05-05 18:09 50.04861 8.58400 362 ft 3 kts 231°
2026-05-05 18:09 50.04871 8.58429 362 ft 3 kts 250°
2026-05-05 18:09 50.04873 8.58438 362 ft 2 kts 250°
2026-05-05 18:12 50.04871 8.58431 362 ft 2 kts 250°
2026-05-05 18:12 50.04856 8.58366 364 ft 11 kts 250°
2026-05-05 18:13 50.04824 8.58231 364 ft 13 kts 250°
2026-05-05 18:13 50.04791 8.58094 362 ft 14 kts 250°
2026-05-05 18:13 50.04759 8.57971 364 ft 13 kts 237°
2026-05-05 18:13 50.04697 8.57855 360 ft 15 kts 243°
2026-05-05 18:14 50.04663 8.57713 364 ft 13 kts 250°
2026-05-05 18:14 50.04628 8.57565 363 ft 16 kts 250°
2026-05-05 18:14 50.04587 8.57392 361 ft 18 kts 249°
2026-05-05 18:14 50.04538 8.57186 361 ft 22 kts 250°
2026-05-05 18:15 50.04482 8.56954 366 ft 23 kts 249°
2026-05-05 18:15 50.04425 8.56714 364 ft 25 kts 250°
2026-05-05 18:15 50.04370 8.56486 365 ft 22 kts 250°
2026-05-05 18:15 50.04318 8.56269 361 ft 21 kts 250°
2026-05-05 18:16 50.04264 8.56040 359 ft 24 kts 249°
2026-05-05 18:16 50.04203 8.55788 359 ft 26 kts 249°
2026-05-05 18:16 50.04144 8.55540 356 ft 23 kts 249°
2026-05-05 18:16 50.04094 8.55332 361 ft 21 kts 250°
2026-05-05 18:17 50.04043 8.55117 358 ft 22 kts 249°
2026-05-05 18:17 50.03993 8.54910 359 ft 21 kts 250°
2026-05-05 18:17 50.03939 8.54682 353 ft 24 kts 250°
2026-05-05 18:17 50.03878 8.54429 352 ft 23 kts 249°
2026-05-05 18:18 50.03807 8.54250 350 ft 13 kts 240°
2026-05-05 18:18 50.03780 8.54138 349 ft 12 kts 250°
2026-05-05 18:18 50.03744 8.53990 355 ft 16 kts 250°
2026-05-05 18:18 50.03710 8.53848 351 ft 12 kts 250°
2026-05-05 18:19 50.03679 8.53719 345 ft 13 kts 249°
2026-05-05 18:19 50.03641 8.53568 346 ft 16 kts 247°
2026-05-05 18:19 50.03598 8.53388 348 ft 19 kts 248°
2026-05-05 18:19 50.03553 8.53204 342 ft 15 kts 250°
2026-05-05 18:20 50.03523 8.53078 339 ft 10 kts 249°
2026-05-05 18:20 50.03506 8.53007 337 ft 5 kts 249°
2026-05-05 18:20 50.03504 8.53001 338 ft 0 kts 250°
2026-05-05 18:21 50.03496 8.52964 340 ft 9 kts 250°
2026-05-05 18:21 50.03474 8.52884 337 ft 5 kts 246°
2026-05-05 18:21 50.03472 8.52876 338 ft 0 kts 246°
2026-05-05 18:22 50.03465 8.52849 339 ft 7 kts 246°
2026-05-05 18:23 50.03451 8.52799 338 ft 0 kts 248°
2026-05-05 18:24 50.03450 8.52798 339 ft 1 kts 248°
2026-05-05 18:24 50.03439 8.52754 336 ft 7 kts 250°
2026-05-05 18:24 50.03432 8.52723 335 ft 0 kts 249°
2026-05-05 18:25 50.03431 8.52721 336 ft 1 kts 249°
2026-05-05 18:25 50.03427 8.52702 335 ft 5 kts 249°
2026-05-05 18:25 50.03394 8.52597 336 ft 4 kts 203°
2026-05-05 18:25 50.03379 8.52592 338 ft 0 kts 180°
2026-05-05 18:28 50.03363 8.52592 337 ft 10 kts 180°
2026-05-05 18:28 50.03165 8.52595 338 ft 59 kts 179°
2026-05-05 18:29 50.02525 8.52602 338 ft 122 kts 179°
2026-05-05 18:29 50.01517 8.52619 452 ft 158 kts 179°
2026-05-05 18:29 50.00373 8.52637 875 ft 173 kts 181°
2026-05-05 18:29 49.99196 8.52684 1685 ft 167 kts 179°
2026-05-05 18:30 49.98008 8.52770 2259 ft 179 kts 180°
2026-05-05 18:30 49.96695 8.52864 2701 ft 200 kts 180°
2026-05-05 18:30 49.95206 8.52968 3102 ft 227 kts 180°
2026-05-05 18:30 49.93617 8.53082 4010 ft 226 kts 180°
2026-05-05 18:31 49.92042 8.53191 4997 ft 228 kts 180°
2026-05-05 18:31 49.90448 8.53302 5884 ft 231 kts 180°
2026-05-05 18:31 49.88836 8.53413 6753 ft 233 kts 180°
2026-05-05 18:31 49.87203 8.53525 7568 ft 237 kts 180°
2026-05-05 18:32 49.85543 8.53640 8412 ft 240 kts 180°
2026-05-05 18:32 49.83865 8.53756 9265 ft 243 kts 180°
2026-05-05 18:32 49.82163 8.53873 10068 ft 246 kts 180°
2026-05-05 18:32 49.80442 8.53991 10838 ft 249 kts 180°
2026-05-05 18:33 49.78693 8.54072 11584 ft 255 kts 186°
2026-05-05 18:33 49.76921 8.53450 12012 ft 271 kts 202°
2026-05-05 18:33 49.75073 8.52454 12408 ft 292 kts 200°
2026-05-05 18:33 49.73070 8.51446 12787 ft 313 kts 199°
2026-05-05 18:34 49.71673 8.50756 13038 ft 325 kts 199°
2026-05-05 18:34 49.69462 8.49680 13531 ft 340 kts 199°
2026-05-05 18:34 49.67168 8.48574 14059 ft 351 kts 199°
2026-05-05 18:34 49.64818 8.47447 14769 ft 355 kts 198°
2026-05-05 18:35 49.62448 8.46311 15535 ft 359 kts 198°
2026-05-05 18:35 49.60045 8.45160 16283 ft 363 kts 198°
2026-05-05 18:35 49.57623 8.44002 17027 ft 367 kts 198°
2026-05-05 18:35 49.55175 8.42832 17746 ft 370 kts 198°
2026-05-05 18:36 49.52700 8.41651 18421 ft 374 kts 198°
2026-05-05 18:36 49.50200 8.40460 19034 ft 378 kts 198°
2026-05-05 18:36 49.47677 8.39259 19649 ft 382 kts 197°
2026-05-05 18:36 49.45126 8.38046 20246 ft 385 kts 197°
2026-05-05 18:37 49.42552 8.36822 20825 ft 389 kts 197°
2026-05-05 18:37 49.39950 8.35587 21396 ft 393 kts 197°
2026-05-05 18:37 49.37323 8.34342 22001 ft 397 kts 197°
2026-05-05 18:37 49.34668 8.33090 22583 ft 400 kts 197°
2026-05-05 18:38 49.31993 8.31850 23150 ft 404 kts 196°
2026-05-05 18:38 49.29291 8.30611 23631 ft 408 kts 196°
2026-05-05 18:38 49.26588 8.29371 23777 ft 410 kts 196°
2026-05-05 18:38 49.23855 8.28118 24164 ft 411 kts 196°
2026-05-05 18:39 49.21107 8.26859 24692 ft 412 kts 196°
2026-05-05 18:39 49.18352 8.25600 25172 ft 414 kts 196°
2026-05-05 18:39 49.15578 8.24332 25628 ft 417 kts 196°
2026-05-05 18:39 49.12790 8.23059 26082 ft 420 kts 196°
2026-05-05 18:40 49.09982 8.21780 26532 ft 422 kts 196°
2026-05-05 18:40 49.07156 8.20493 26966 ft 425 kts 196°
2026-05-05 18:40 49.04314 8.19201 27397 ft 428 kts 196°
2026-05-05 18:40 49.01456 8.17903 27827 ft 430 kts 195°
2026-05-05 18:41 48.98573 8.16595 28271 ft 432 kts 196°
2026-05-05 18:41 48.95679 8.15284 28682 ft 435 kts 196°
2026-05-05 18:41 48.92771 8.13968 29073 ft 438 kts 196°
2026-05-05 18:41 48.89841 8.12643 29469 ft 440 kts 196°
2026-05-05 18:42 48.86897 8.11314 29848 ft 443 kts 195°
2026-05-05 18:42 48.83936 8.09979 30187 ft 445 kts 195°
2026-05-05 18:42 48.80961 8.08640 30523 ft 447 kts 195°
2026-05-05 18:42 48.77984 8.07300 30946 ft 446 kts 196°
2026-05-05 18:43 48.75023 8.05970 31474 ft 443 kts 196°
2026-05-05 18:43 48.72073 8.04647 31962 ft 441 kts 196°
2026-05-05 18:43 48.69138 8.03331 32415 ft 439 kts 196°
2026-05-05 18:43 48.66208 8.02020 32874 ft 438 kts 196°
2026-05-05 18:44 48.63290 8.00716 33325 ft 437 kts 196°
2026-05-05 18:44 48.60380 7.99417 33775 ft 436 kts 196°
2026-05-05 18:44 48.57473 7.98120 34152 ft 435 kts 196°
2026-05-05 18:44 48.54576 7.96829 34501 ft 434 kts 196°
2026-05-05 18:45 48.51681 7.95542 34838 ft 434 kts 196°
2026-05-05 18:45 48.48787 7.94255 35180 ft 433 kts 196°
2026-05-05 18:45 48.45898 7.92974 35518 ft 433 kts 196°
2026-05-05 18:45 48.43012 7.91694 35846 ft 432 kts 197°
2026-05-05 18:46 48.40162 7.90432 36165 ft 432 kts 197°
2026-05-05 18:46 48.37243 7.89143 36476 ft 432 kts 197°
2026-05-05 18:46 48.34404 7.87888 36791 ft 431 kts 197°
2026-05-05 18:46 48.31526 7.86618 37095 ft 431 kts 197°
2026-05-05 18:47 48.28652 7.85351 37389 ft 430 kts 197°
2026-05-05 18:47 48.25781 7.84088 37677 ft 430 kts 197°
2026-05-05 18:47 48.22906 7.82824 37957 ft 430 kts 197°
2026-05-05 18:47 48.20038 7.81564 38228 ft 429 kts 197°
2026-05-05 18:48 48.17175 7.80309 38484 ft 429 kts 197°
2026-05-05 18:48 48.14304 7.79050 38666 ft 430 kts 197°
2026-05-05 18:48 48.11431 7.77793 38806 ft 431 kts 197°
2026-05-05 18:48 48.08553 7.76535 38857 ft 431 kts 197°
2026-05-05 18:49 48.02803 7.74026 38854 ft 429 kts 197°
2026-05-05 18:49 47.97056 7.71525 38856 ft 430 kts 197°
2026-05-05 18:50 47.91319 7.69033 38864 ft 429 kts 197°
2026-05-05 18:50 47.85612 7.66560 38879 ft 429 kts 197°
2026-05-05 18:51 47.79875 7.64080 38867 ft 429 kts 197°
2026-05-05 18:51 47.74134 7.61603 38870 ft 429 kts 197°
2026-05-05 18:52 47.68419 7.59144 38863 ft 426 kts 197°
2026-05-05 18:52 47.62716 7.56696 38864 ft 426 kts 197°
2026-05-05 18:53 47.57047 7.54267 38875 ft 426 kts 197°
2026-05-05 18:53 47.51334 7.51825 38858 ft 427 kts 197°
2026-05-05 18:54 47.45614 7.49386 38890 ft 427 kts 197°
2026-05-05 18:54 47.39900 7.46955 38885 ft 427 kts 197°
2026-05-05 18:55 47.34181 7.44527 38879 ft 427 kts 197°
2026-05-05 18:55 47.28453 7.42101 38887 ft 428 kts 197°
2026-05-05 18:56 47.22764 7.39697 38887 ft 428 kts 197°
2026-05-05 18:56 47.17276 7.36425 38900 ft 426 kts 206°
2026-05-05 18:57 47.11883 7.32824 38878 ft 426 kts 205°
2026-05-05 18:57 47.06451 7.29295 38892 ft 427 kts 205°
2026-05-05 18:58 47.01008 7.25786 38888 ft 427 kts 204°
2026-05-05 18:58 46.95565 7.22291 38893 ft 427 kts 204°
2026-05-05 18:59 46.90109 7.18796 38886 ft 429 kts 205°
2026-05-05 18:59 46.84640 7.15300 38893 ft 429 kts 205°
2026-05-05 19:00 46.79164 7.11808 38887 ft 429 kts 205°
2026-05-05 19:00 46.73697 7.08329 38880 ft 428 kts 205°
2026-05-05 19:01 46.68276 7.04889 38886 ft 427 kts 205°
2026-05-05 19:01 46.62821 7.01433 38893 ft 428 kts 205°
2026-05-05 19:02 46.57358 6.97980 38896 ft 427 kts 205°
2026-05-05 19:02 46.51906 6.94542 38907 ft 428 kts 205°
2026-05-05 19:03 46.46463 6.91116 38905 ft 427 kts 205°
2026-05-05 19:03 46.41003 6.87688 38900 ft 427 kts 205°
2026-05-05 19:04 46.35532 6.84260 38898 ft 427 kts 205°
2026-05-05 19:04 46.30125 6.80880 38907 ft 425 kts 205°
2026-05-05 19:05 46.24653 6.77465 38906 ft 431 kts 205°
2026-05-05 19:05 46.19151 6.74042 38905 ft 430 kts 205°
2026-05-05 19:06 46.16370 6.72313 38769 ft 431 kts 205°
2026-05-05 19:06 46.13641 6.70622 38865 ft 423 kts 205°
2026-05-05 19:06 46.08249 6.67277 38904 ft 427 kts 205°
2026-05-05 19:07 46.02792 6.63903 38919 ft 427 kts 205°
2026-05-05 19:07 45.97331 6.60532 38898 ft 427 kts 205°
2026-05-05 19:08 45.91902 6.57190 38916 ft 423 kts 205°
2026-05-05 19:08 45.86506 6.53874 38920 ft 422 kts 204°
2026-05-05 19:09 45.81089 6.50553 38914 ft 422 kts 205°
2026-05-05 19:09 45.75705 6.47258 38910 ft 421 kts 205°
2026-05-05 19:10 45.70333 6.43978 38927 ft 420 kts 205°
2026-05-05 19:10 45.64950 6.40699 38901 ft 420 kts 205°
2026-05-05 19:11 45.59566 6.37425 38910 ft 421 kts 205°
2026-05-05 19:11 45.54186 6.34161 38915 ft 420 kts 205°
2026-05-05 19:12 45.48841 6.30924 38893 ft 419 kts 205°
2026-05-05 19:12 45.43467 6.27678 38894 ft 420 kts 205°
2026-05-05 19:13 45.38093 6.24438 38886 ft 419 kts 205°
2026-05-05 19:13 45.32733 6.21211 38915 ft 419 kts 205°
2026-05-05 19:14 45.27344 6.17975 38898 ft 420 kts 204°
2026-05-05 19:14 45.21924 6.14727 38912 ft 424 kts 204°
2026-05-05 19:15 45.16476 6.11470 38904 ft 425 kts 205°
2026-05-05 19:15 45.11023 6.08216 38903 ft 425 kts 205°
2026-05-05 19:16 45.05607 6.04991 38914 ft 425 kts 205°
2026-05-05 19:16 45.00144 6.01744 38895 ft 423 kts 205°
2026-05-05 19:17 44.94716 5.98525 38923 ft 425 kts 205°
2026-05-05 19:17 44.89274 5.95304 38927 ft 424 kts 205°
2026-05-05 19:18 44.83847 5.92099 38937 ft 425 kts 205°
2026-05-05 19:18 44.78433 5.88907 38913 ft 419 kts 205°
2026-05-05 19:19 44.73053 5.85743 38935 ft 420 kts 205°
2026-05-05 19:19 44.67660 5.82578 38920 ft 419 kts 205°
2026-05-05 19:20 44.63182 5.79953 38922 ft 420 kts 205°
2026-05-05 19:20 44.57789 5.76800 38916 ft 419 kts 205°
2026-05-05 19:21 44.52387 5.73646 38924 ft 420 kts 205°
2026-05-05 19:21 44.47004 5.70510 38923 ft 420 kts 205°
2026-05-05 19:22 44.41578 5.67355 38929 ft 422 kts 205°
2026-05-05 19:22 44.36161 5.64214 38921 ft 421 kts 205°
2026-05-05 19:23 44.30742 5.61076 38920 ft 422 kts 205°
2026-05-05 19:23 44.25322 5.57944 38911 ft 420 kts 205°
2026-05-05 19:24 44.19919 5.54828 38918 ft 419 kts 205°
2026-05-05 19:24 44.14567 5.51747 38924 ft 419 kts 205°
2026-05-05 19:25 44.09171 5.48648 38900 ft 419 kts 205°
2026-05-05 19:25 44.03787 5.45561 38904 ft 418 kts 205°
2026-05-05 19:26 43.98415 5.42487 38914 ft 418 kts 205°
2026-05-05 19:26 43.93036 5.39416 38909 ft 417 kts 205°
2026-05-05 19:27 43.87658 5.36351 38898 ft 418 kts 205°
2026-05-05 19:27 43.82258 5.33279 38914 ft 420 kts 205°
2026-05-05 19:28 43.76832 5.30199 38926 ft 422 kts 205°
2026-05-05 19:28 43.71392 5.27117 38908 ft 422 kts 205°
2026-05-05 19:29 43.65992 5.24064 38915 ft 422 kts 205°
2026-05-05 19:29 43.60558 5.20997 38914 ft 422 kts 205°
2026-05-05 19:30 43.55128 5.17939 38915 ft 422 kts 205°
2026-05-05 19:30 43.49696 5.14885 38904 ft 421 kts 205°
2026-05-05 19:31 43.44257 5.11834 38909 ft 422 kts 205°
2026-05-05 19:31 43.38842 5.08717 38903 ft 419 kts 212°
2026-05-05 19:32 43.34022 5.04287 38891 ft 418 kts 216°
2026-05-05 19:32 43.29252 4.99832 38899 ft 416 kts 217°
2026-05-05 19:33 43.24481 4.95349 38907 ft 416 kts 217°
2026-05-05 19:33 43.19691 4.90853 38912 ft 418 kts 217°
2026-05-05 19:34 43.14890 4.86356 38904 ft 418 kts 217°
2026-05-05 19:35 43.07716 4.79650 38904 ft 413 kts 217°
2026-05-05 19:35 43.02760 4.75673 38913 ft 415 kts 212°
2026-05-05 19:36 42.97701 4.71871 38903 ft 415 kts 212°
2026-05-05 19:36 42.92656 4.68043 38900 ft 415 kts 212°
2026-05-05 19:37 42.87643 4.64241 38901 ft 410 kts 212°
2026-05-05 19:37 42.82663 4.60469 38900 ft 410 kts 212°
2026-05-05 19:38 42.77674 4.56698 38923 ft 411 kts 212°
2026-05-05 19:38 42.72654 4.52911 38908 ft 413 kts 212°
2026-05-05 19:39 42.67627 4.49125 38903 ft 413 kts 212°
2026-05-05 19:39 42.62596 4.45343 38903 ft 413 kts 212°
2026-05-05 19:40 42.57566 4.41570 38900 ft 413 kts 212°
2026-05-05 19:40 42.52538 4.37804 38877 ft 413 kts 212°
2026-05-05 19:41 42.47544 4.34072 38896 ft 408 kts 212°
2026-05-05 19:41 42.42611 4.30390 38896 ft 408 kts 212°
2026-05-05 19:42 42.37637 4.26686 38898 ft 408 kts 212°
2026-05-05 19:42 42.32662 4.22988 38872 ft 408 kts 212°
2026-05-05 19:43 42.27708 4.19311 38907 ft 406 kts 212°
2026-05-05 19:43 42.22723 4.15618 38901 ft 410 kts 212°
2026-05-05 19:44 42.17716 4.11916 38900 ft 410 kts 212°
2026-05-05 19:44 42.12697 4.08228 38899 ft 410 kts 212°
2026-05-05 19:45 42.07690 4.04552 38889 ft 409 kts 212°
2026-05-05 19:45 42.02688 4.00887 38894 ft 409 kts 212°
2026-05-05 19:46 41.97676 3.97221 38894 ft 409 kts 212°
2026-05-05 19:46 41.92653 3.93712 38892 ft 412 kts 207°
2026-05-05 19:47 41.87153 3.91398 38893 ft 417 kts 200°
2026-05-05 19:47 41.81554 3.89357 38896 ft 417 kts 200°
2026-05-05 19:48 41.75963 3.87283 38892 ft 417 kts 200°
2026-05-05 19:48 41.70367 3.85206 38878 ft 417 kts 200°
2026-05-05 19:49 41.64780 3.83135 38893 ft 416 kts 200°
2026-05-05 19:49 41.59200 3.81071 38903 ft 416 kts 200°
2026-05-05 19:50 41.53575 3.78994 38894 ft 423 kts 200°
2026-05-05 19:50 41.47891 3.76898 38881 ft 422 kts 200°
2026-05-05 19:51 41.42291 3.74838 38894 ft 419 kts 200°
2026-05-05 19:51 41.36668 3.72772 38901 ft 419 kts 200°
2026-05-05 19:52 41.31037 3.70708 38901 ft 419 kts 200°
2026-05-05 19:52 41.25416 3.68651 38897 ft 418 kts 200°
2026-05-05 19:53 41.19823 3.66608 38900 ft 417 kts 200°
2026-05-05 19:53 41.14235 3.64570 38898 ft 415 kts 200°
2026-05-05 19:54 41.08665 3.62543 38901 ft 415 kts 200°
2026-05-05 19:54 41.03110 3.60523 38904 ft 412 kts 201°
2026-05-05 19:55 40.97568 3.58512 37726 ft 417 kts 201°
2026-05-05 19:55 40.94800 3.57509 36889 ft 408 kts 201°
2026-05-05 19:55 40.92081 3.56525 35967 ft 403 kts 201°
2026-05-05 19:55 40.89390 3.55551 34988 ft 399 kts 201°
2026-05-05 19:56 40.86728 3.54589 34003 ft 395 kts 202°
2026-05-05 19:56 40.84085 3.53636 32806 ft 392 kts 202°
2026-05-05 19:56 40.81457 3.52687 31528 ft 392 kts 202°
2026-05-05 19:56 40.78816 3.51735 30170 ft 395 kts 202°
2026-05-05 19:57 40.76157 3.50777 28524 ft 399 kts 202°
2026-05-05 19:57 40.74381 3.50137 27403 ft 402 kts 201°
2026-05-05 19:57 40.70770 3.48840 26353 ft 396 kts 201°
2026-05-05 19:57 40.68138 3.47894 25865 ft 387 kts 202°
2026-05-05 19:58 40.65545 3.46962 25258 ft 396 kts 201°
2026-05-05 19:58 40.62877 3.46006 24645 ft 399 kts 201°
2026-05-05 19:58 40.60194 3.45045 24026 ft 399 kts 201°
2026-05-05 19:58 40.57522 3.44088 23390 ft 397 kts 201°
2026-05-05 19:59 40.54866 3.43139 22665 ft 394 kts 201°
2026-05-05 19:59 40.52232 3.42198 22028 ft 391 kts 201°
2026-05-05 19:59 40.49578 3.41250 21407 ft 388 kts 201°
2026-05-05 19:59 40.47020 3.40327 20778 ft 384 kts 202°
2026-05-05 20:00 40.44484 3.39249 19770 ft 381 kts 203°
2026-05-05 20:00 40.41995 3.38192 18799 ft 372 kts 202°
2026-05-05 20:00 40.39560 3.37168 17853 ft 365 kts 202°
2026-05-05 20:00 40.37167 3.36166 16866 ft 357 kts 202°
2026-05-05 20:01 40.34821 3.35186 15928 ft 351 kts 202°
2026-05-05 20:01 40.32515 3.34223 15049 ft 346 kts 201°
2026-05-05 20:01 40.30214 3.33263 14216 ft 348 kts 201°
2026-05-05 20:01 40.27901 3.32300 13317 ft 348 kts 201°
2026-05-05 20:02 40.25615 3.31347 12410 ft 341 kts 201°
2026-05-05 20:02 40.23377 3.30416 11716 ft 336 kts 201°
2026-05-05 20:02 40.21135 3.29484 11340 ft 336 kts 201°
2026-05-05 20:02 40.18943 3.28573 11166 ft 325 kts 201°
2026-05-05 20:03 40.16828 3.27695 11008 ft 313 kts 201°
2026-05-05 20:03 40.14779 3.26845 10830 ft 304 kts 201°
2026-05-05 20:03 40.12797 3.26023 10667 ft 294 kts 201°
2026-05-05 20:03 40.10877 3.25227 10538 ft 284 kts 201°
2026-05-05 20:04 40.09021 3.24458 10398 ft 275 kts 201°
2026-05-05 20:04 40.07248 3.23724 10254 ft 267 kts 201°
2026-05-05 20:04 40.05501 3.23001 10117 ft 259 kts 201°
2026-05-05 20:04 40.03777 3.22288 9918 ft 265 kts 201°
2026-05-05 20:05 40.01999 3.21554 9579 ft 271 kts 201°
2026-05-05 20:05 40.00190 3.20806 9239 ft 274 kts 201°
2026-05-05 20:05 39.98371 3.20055 8914 ft 275 kts 201°
2026-05-05 20:05 39.96546 3.19302 8602 ft 276 kts 201°
2026-05-05 20:06 39.94717 3.18548 8294 ft 276 kts 201°
2026-05-05 20:06 39.92888 3.17794 7974 ft 275 kts 201°
2026-05-05 20:06 39.91068 3.17045 7662 ft 273 kts 201°
2026-05-05 20:06 39.89871 3.16552 7452 ft 272 kts 201°
2026-05-05 20:07 39.88074 3.15812 7141 ft 270 kts 201°
2026-05-05 20:07 39.86286 3.15077 6850 ft 269 kts 201°
2026-05-05 20:07 39.84506 3.14345 6535 ft 268 kts 201°
2026-05-05 20:07 39.82730 3.13615 6222 ft 267 kts 201°
2026-05-05 20:08 39.80965 3.12890 5904 ft 266 kts 201°
2026-05-05 20:08 39.79204 3.12168 5591 ft 264 kts 201°
2026-05-05 20:08 39.77461 3.11452 5296 ft 263 kts 201°
2026-05-05 20:08 39.75722 3.10740 4988 ft 261 kts 201°
2026-05-05 20:09 39.73998 3.10034 4703 ft 259 kts 201°
2026-05-05 20:09 39.72300 3.09331 4535 ft 251 kts 204°
2026-05-05 20:09 39.70885 3.08166 4352 ft 235 kts 231°
2026-05-05 20:09 39.70048 3.06431 4227 ft 221 kts 244°
2026-05-05 20:10 39.69236 3.04786 4134 ft 213 kts 237°
2026-05-05 20:10 39.68407 3.03243 4014 ft 204 kts 238°
2026-05-05 20:10 39.67641 3.01741 3897 ft 197 kts 240°
2026-05-05 20:10 39.66897 3.00221 3806 ft 202 kts 241°
2026-05-05 20:11 39.66149 2.98660 3709 ft 204 kts 241°
2026-05-05 20:11 39.65405 2.97095 3558 ft 204 kts 241°
2026-05-05 20:11 39.64660 2.95518 3324 ft 205 kts 241°
2026-05-05 20:11 39.63919 2.93948 3108 ft 205 kts 241°
2026-05-05 20:12 39.63167 2.92353 2839 ft 207 kts 241°
2026-05-05 20:12 39.62418 2.90762 2576 ft 207 kts 240°
2026-05-05 20:12 39.61682 2.89198 2368 ft 199 kts 240°
2026-05-05 20:12 39.60980 2.87710 2111 ft 186 kts 240°
2026-05-05 20:13 39.60354 2.86378 1865 ft 161 kts 240°
2026-05-05 20:13 39.59806 2.85215 1666 ft 147 kts 239°
2026-05-05 20:13 39.59279 2.84103 1459 ft 146 kts 240°
2026-05-05 20:13 39.58749 2.82978 1262 ft 147 kts 239°
2026-05-05 20:14 39.58216 2.81845 1083 ft 147 kts 240°
2026-05-05 20:14 39.57687 2.80723 873 ft 146 kts 239°
2026-05-05 20:14 39.57167 2.79593 671 ft 148 kts 238°
2026-05-05 20:14 39.56620 2.78451 480 ft 149 kts 238°
2026-05-05 20:15 39.56093 2.77323 302 ft 145 kts 237°
2026-05-05 20:15 39.55554 2.76195 93 ft 147 kts 238°
2026-05-05 20:15 39.55064 2.75152 41 ft 122 kts 238°
2026-05-05 20:15 39.54729 2.74448 41 ft 58 kts 239°
2026-05-05 20:16 39.54582 2.74132 39 ft 16 kts 243°
2026-05-05 20:16 39.54556 2.73978 41 ft 19 kts 264°
2026-05-05 20:16 39.54549 2.73830 41 ft 16 kts 268°
2026-05-05 20:16 39.54551 2.73755 41 ft 0 kts 271°
2026-05-05 20:17 39.54551 2.73754 41 ft 0 kts 271°
2026-05-05 20:17 39.54552 2.73741 41 ft 5 kts 275°
2026-05-05 20:17 39.54568 2.73677 39 ft 0 kts 303°
2026-05-05 20:18 39.54571 2.73675 40 ft 1 kts 335°
2026-05-05 20:18 39.54592 2.73702 39 ft 11 kts 64°
2026-05-05 20:18 39.54647 2.73826 41 ft 19 kts 59°
2026-05-05 20:18 39.54702 2.73942 41 ft 11 kts 58°
2026-05-05 20:19 39.54770 2.73944 41 ft 12 kts 355°
2026-05-05 20:19 39.54837 2.74000 41 ft 10 kts 357°
2026-05-05 20:19 39.54855 2.73940 41 ft 9 kts 261°
2026-05-05 20:19 39.54852 2.73856 41 ft 6 kts 268°
2026-05-05 20:20 39.54852 2.73838 41 ft 0 kts 268°